Date,TemperatureHighF,TemperatureAvgF,TemperatureLowF,DewpointHighF,DewpointAvgF,DewpointLowF,HumidityHigh,HumidityAvg,HumidityLow,PressureMaxIn,PressureMinIn,WindSpeedMaxMPH,WindSpeedAvgMPH,GustSpeedMaxMPH,PrecipitationSumIn
2013-9-1,74.3,65.2,60.3,58.0,54.7,52.3,76,68,54,29.96,29.91,2,0,6,0.00
2013-9-2,76.9,65.3,60.0,61.0,56.0,53.2,81,72,55,29.97,29.88,13,2,19,0.00
2013-9-3,67.5,63.0,58.8,59.0,54.8,53.2,84,74,60,29.98,29.91,14,4,23,0.00
2013-9-4,67.9,61.0,56.6,59.5,54.1,51.4,84,77,66,30.01,29.93,12,3,20,0.00
2013-9-5,66.9,60.6,55.3,60.3,53.4,50.8,87,77,65,29.99,29.91,11,3,19,0.00
2013-9-6,66.0,59.6,55.4,54.4,51.9,49.3,83,75,64,29.96,29.86,9,2,15,0.00
2013-9-7,70.3,60.5,54.3,56.1,52.8,48.9,83,75,59,29.95,29.87,4,1,10,0.01
2013-9-8,64.8,58.7,54.1,54.8,52.7,50.0,86,80,68,29.92,29.83,8,2,12,0.02
2013-9-9,66.2,59.6,55.7,56.7,52.9,51.0,84,78,67,29.87,29.80,6,1,12,0.01
2013-9-10,73.1,63.0,56.2,58.7,53.9,51.0,85,72,56,29.96,29.82,6,1,9,0.00
2013-9-11,72.5,62.9,55.9,59.0,54.7,51.2,85,74,58,30.05,29.96,5,1,10,0.00
2013-9-12,65.7,59.7,53.6,58.4,53.9,49.9,87,81,71,30.00,29.90,12,4,20,0.00
2013-9-13,65.6,60.1,55.9,59.4,54.1,50.7,89,80,70,29.93,29.76,13,3,21,0.01
2013-9-14,65.5,58.2,54.4,56.9,52.2,49.7,86,80,69,29.82,29.73,12,2,20,0.00
2013-9-15,64.4,57.9,52.5,56.6,51.5,48.7,88,79,67,29.85,29.76,9,3,18,0.00
2013-9-16,64.6,58.1,52.1,55.9,51.7,47.6,85,79,69,29.90,29.82,8,2,15,0.01
2013-9-17,65.9,58.3,53.4,58.3,51.5,48.6,85,78,65,29.90,29.81,19,6,31,0.00
2013-9-18,64.3,56.3,50.2,55.7,49.8,46.0,86,79,65,29.90,29.82,12,3,20,0.01
2013-9-19,67.1,57.7,50.9,54.0,49.9,46.5,87,75,51,29.85,29.78,8,2,16,0.00
2013-9-20,67.2,59.9,53.0,57.8,52.4,47.7,84,76,60,29.94,29.81,6,2,12,0.01
2013-9-21,68.6,61.8,57.3,60.8,56.1,53.3,86,81,73,29.94,29.89,6,2,9,0.09
2013-9-22,63.8,57.3,50.9,58.9,51.9,47.6,89,82,74,30.00,29.92,11,3,18,0.00
2013-9-23,70.8,61.9,54.7,52.3,49.5,46.0,81,64,41,29.98,29.89,12,3,21,0.00
2013-9-24,66.6,59.3,54.3,56.8,51.4,47.9,82,75,62,29.97,29.88,15,4,25,0.00
2013-9-25,60.4,55.4,50.9,50.4,48.1,45.0,84,76,68,29.95,29.81,21,8,34,0.00
2013-9-26,64.2,55.0,46.7,51.4,45.8,40.3,79,71,57,29.98,29.83,12,2,21,0.00
2013-9-27,67.2,55.8,48.1,53.2,46.2,40.5,83,70,56,30.08,29.98,8,2,17,0.00
2013-9-28,71.6,60.5,53.4,47.1,40.8,33.6,73,49,31,30.08,30.01,8,2,16,0.00
2013-9-29,65.4,57.9,51.5,53.2,47.9,39.6,83,69,52,30.10,30.02,12,3,23,0.00
2013-9-30,66.5,58.3,52.2,55.7,51.8,46.9,89,79,63,30.07,29.95,13,4,19,0.00